Location: Dąbrowa Miętka
(51.3714°N, 18.6370°E)
Time: 19:12:24
(UTC+01:00)

ISS - Visible Passes

Search period start: 22 February 2018 00:00
Search period end: 04 March 2018 00:00
Orbit: 402 x 407 km, 51.6° (Epoch: 23 February)

Date Brightness Start Highest point End Pass type
(mag) Time Alt. Az. Time Alt. Az. Time Alt. Az.
27 Feb -0.9 05:34:44 10° S 05:36:23 13° SE 05:38:02 10° ESE visible
01 Mar -1.7 05:25:15 10° SSW 05:27:56 23° SSE 05:30:38 10° E visible
02 Mar -1.2 04:34:05 11° S 04:35:50 15° SE 04:37:53 10° ESE visible
03 Mar -2.7 05:16:44 12° SW 05:19:33 39° SSE 05:22:39 10° E visible
